Location: Chapel Hill
(35.9134°N, 79.0560°W)
Time: 23:47:38
(UTC-04:00)

Tiangong - Visible Passes

Search period start: 12 July 2024 00:00
Search period end: 22 July 2024 00:00
Orbit: 373 x 379 km, 41.5° (Epoch: 12 July)

Date Brightness Start Highest point End Pass type
(mag) Time Alt. Az. Time Alt. Az. Time Alt. Az.
12 Jul -2.1 04:26:02 57° S 04:26:12 58° SSE 04:29:16 10° ENE visible
13 Jul 0.9 03:26:25 12° E 03:26:25 12° E 03:26:39 10° E visible
13 Jul -1.5 04:58:26 18° W 05:00:28 49° NNW 05:03:29 10° ENE visible
14 Jul -1.2 03:58:44 47° ENE 03:58:44 47° ENE 04:01:03 10° ENE visible
14 Jul -0.5 05:32:04 10° WNW 05:34:50 29° N 05:37:37 10° ENE visible
15 Jul -0.9 04:30:57 26° WNW 04:32:09 36° NNW 04:35:03 10° ENE visible
16 Jul 0.3 03:31:07 23° NE 03:31:07 23° NE 03:32:29 10° ENE visible
16 Jul -0.3 05:03:41 10° WNW 05:06:25 27° N 05:09:08 10° ENE visible
17 Jul -0.6 04:03:15 30° NNW 04:03:33 30° N 04:06:22 10° ENE visible
17 Jul -0.4 05:37:48 10° WNW 05:40:38 31° N 05:43:27 10° ENE visible
18 Jul 1.2 03:03:22 12° NE 03:03:22 12° NE 03:03:36 10° ENE visible
18 Jul -0.2 04:35:23 13° NW 04:37:42 27° N 04:40:26 10° ENE visible
19 Jul 0.2 03:35:32 24° NNE 03:35:32 24° NNE 03:37:25 10° ENE visible
19 Jul -0.8 05:08:47 10° WNW 05:11:44 39° NNE 05:14:39 10° E visible
20 Jul -0.4 04:07:47 25° NNW 04:08:40 30° N 04:11:28 10° ENE visible
20 Jul -2.2 05:42:24 10° WNW 05:45:30 88° SSW 05:48:36 10° ESE visible
21 Jul 1.3 03:08:11 10° ENE 03:08:11 10° ENE 03:08:14 10° ENE visible
21 Jul -1.5 04:40:13 16° WNW 04:42:29 53° NNE 04:45:31 10° E visible
